FW4704 Weather Reports


Display with metric or nautical units.
time (UTC)temp
F
wind
direction
speed
MPH
gust
MPH
rain 1hr
in
rain 24hr
in
rain mn
in
humidity
%
barometer
mb
20260510054539 53 325 12.0 17.0 0.00 0.00 0.00 90 1014.7
20260510053037 53 315 10.0 15.0 0.00 0.00 0.00 92 1014.7
20260510051543 52 296 9.0 14.0 0.00 0.00 0.00 93 1014.7
20260510050035 52 360 7.0 11.0 0.00 0.00 0.00 93 1014.8
20260510044537 51 360 7.0 11.0 0.00 0.00 0.00 93 1014.8
20260510043042 51 360 7.0 11.0 0.00 0.00 0.00 93 1014.8
20260510041534 51 289 9.0 13.0 0.00 0.00 0.00 93 1014.7
20260510040032 51 312 9.0 12.0 0.00 0.00 0.00 93 1014.5
20260510034529 51 284 8.0 13.0 0.00 0.00 0.00 93 1014.5
20260510033025 51 257 8.0 15.0 0.00 0.00 0.00 93 1014.5
20260510031528 51 289 7.0 11.0 0.00 0.00 0.00 93 1014.9
20260510030021 51 360 7.0 11.0 0.00 0.00 0.00 93 1014.8
20260510023033 52 290 4.0 8.0 0.00 0.00 0.00 93 1014.8
20260510021515 52 323 5.0 9.0 0.00 0.00 0.00 93 1014.9
20260510020013 52 305 5.0 9.0 0.00 0.00 0.00 92 1014.9
20260510014513 51 290 5.0 8.0 0.00 0.00 0.00 91 1015.0
20260510013013 51 310 4.0 8.0 0.00 0.00 0.00 91 1015.1
20260510011513 51 307 5.0 8.0 0.00 0.00 0.00 90 1015.1
20260510010012 51 303 4.0 8.0 0.00 0.00 0.00 89 1015.2
20260510004505 51 360 4.0 5.0 0.00 0.00 0.00 88 1015.3
20260510003005 52 317 3.0 5.0 0.00 0.00 0.00 88 1015.4
20260510001500 52 302 3.0 6.0 0.00 0.00 0.00 87 1015.6
20260510000100 52 309 4.0 6.0 0.00 0.00 0.00 87 1015.5
20260509234608 52 317 5.0 8.0 0.00 0.00 0.00 86 1015.7
20260509233102 52 318 5.0 8.0 0.00 0.00 0.00 86 1015.8
20260509231602 52 301 5.0 8.0 0.00 0.00 0.00 86 1015.9
20260509230053 52 313 4.0 5.0 0.00 0.00 0.00 85 1015.8
20260509224549 53 360 3.0 6.0 0.00 0.00 0.00 85 1015.9
20260509223047 53 318 5.0 10.0 0.00 0.00 0.00 85 1015.8
20260509221544 53 316 5.0 8.0 0.00 0.00 0.00 85 1015.7
20260509220045 53 314 4.0 8.0 0.00 0.00 0.00 85 1015.7
20260509214542 53 299 4.0 7.0 0.00 0.00 0.00 85 1015.8
20260509213057 53 304 4.0 7.0 0.00 0.00 0.00 85 1016.0
20260509211606 54 302 4.0 10.0 0.00 0.00 0.00 84 1015.7
20260509210041 54 302 7.0 10.0 0.00 0.00 0.00 83 1015.7
20260509204553 54 286 6.0 10.0 0.00 0.00 0.00 81 1015.5
20260509203044 54 302 4.0 8.0 0.00 0.00 0.00 79 1015.4
20260509201538 55 293 5.0 9.0 0.00 0.00 0.00 78 1015.4
20260509200038 55 313 3.0 8.0 0.00 0.00 0.00 77 1015.3
20260509194539 56 309 5.0 10.0 0.00 0.00 0.00 75 1015.2
20260509193036 57 308 5.0 9.0 0.00 0.00 0.00 74 1015.3
20260509191536 57 292 5.0 9.0 0.00 0.00 0.00 74 1015.2
20260509190045 58 309 6.0 11.0 0.00 0.00 0.00 73 1015.1
20260509184535 59 298 8.0 13.0 0.00 0.00 0.00 73 1015.3
20260509183037 60 290 8.0 14.0 0.00 0.00 0.00 71 1015.2
20260509181532 61 301 8.0 14.0 0.00 0.00 0.00 69 1015.4
20260509180031 61 296 11.0 19.0 0.00 0.00 0.00 68 1015.5
20260509174534 62 292 12.0 19.0 0.00 0.00 0.00 67 1015.3
20260509173031 63 254 11.0 18.0 0.00 0.00 0.00 67 1015.2
20260509171529 64 310 11.0 17.0 0.00 0.00 0.00 68 1015.3
20260509170031 64 262 11.0 16.0 0.00 0.00 0.00 67 1015.3
20260509164529 65 318 11.0 17.0 0.00 0.00 0.00 66 1015.2
20260509163035 65 286 10.0 16.0 0.00 0.00 0.00 65 1015.2
20260509161527 66 296 12.0 18.0 0.00 0.00 0.00 65 1015.5
20260509160030 66 300 13.0 19.0 0.00 0.00 0.00 65 1015.4
20260509154525 66 293 15.0 19.0 0.00 0.00 0.00 64 1015.5
20260509153025 67 274 8.0 18.0 0.00 0.00 0.00 64 1015.4
20260509151523 68 279 10.0 19.0 0.00 0.00 0.00 64 1015.5
20260509150023 68 271 13.0 18.0 0.00 0.00 0.00 64 1015.3
20260509144522 69 284 14.0 21.0 0.00 0.00 0.00 62 1015.4
20260509143028 69 309 12.0 22.0 0.00 0.00 0.00 63 1015.3
20260509141524 69 277 10.0 17.0 0.00 0.00 0.00 62 1015.4
20260509140019 69 277 7.0 13.0 0.00 0.00 0.00 60 1015.4
20260509134516 69 328 5.0 13.0 0.00 0.00 0.00 61 1015.4
20260509133013 69 300 4.0 10.0 0.00 0.00 0.00 61 1015.6
20260509131513 69 31 4.0 15.0 0.00 0.00 0.00 60 1015.7
20260509130015 69 333 8.0 12.0 0.00 0.00 0.00 61 1015.8
20260509124507 69 360 7.0 14.0 0.00 0.00 0.00 62 1016.0
20260509123005 68 309 5.0 13.0 0.00 0.00 0.00 61 1016.2
20260509121504 68 311 4.0 14.0 0.00 0.00 0.00 61 1016.3
20260509120002 68 13 4.0 13.0 0.00 0.00 0.00 62 1016.3
20260509114602 67 22 8.0 13.0 0.00 0.00 0.00 62 1016.4
20260509113057 68 325 11.0 17.0 0.00 0.00 0.00 63 1016.5
20260509111557 68 335 11.0 16.0 0.00 0.00 0.00 62 1016.7
20260509110057 67 13 10.0 15.0 0.00 0.00 0.00 62 1016.8
20260509104551 68 326 10.0 14.0 0.00 0.00 0.00 62 1016.9
20260509103047 67 313 9.0 15.0 0.00 0.00 0.00 64 1017.0
20260509101546 67 309 8.0 14.0 0.00 0.00 0.00 62 1016.9
20260509100048 67 335 10.0 15.0 0.00 0.00 0.00 63 1017.0
20260509094541 66 332 7.0 13.0 0.00 0.00 0.00 65 1017.0
20260509093036 66 360 10.0 15.0 0.00 0.00 0.00 64 1017.1
20260509091535 65 329 10.0 17.0 0.00 0.00 0.00 67 1017.4
20260509090029 64 324 9.0 13.0 0.00 0.00 0.00 68 1017.4
20260509084528 64 337 10.0 14.0 0.00 0.00 0.00 71 1017.4
20260509083019 63 355 10.0 13.0 0.00 0.00 0.00 72 1017.2
20260509081514 63 348 8.0 13.0 0.00 0.00 0.00 73 1017.3
20260509080021 62 9 9.0 13.0 0.00 0.00 0.00 75 1017.3
20260509074507 61 344 5.0 10.0 0.00 0.00 0.00 77 1017.4
20260509073002 60 360 8.0 10.0 0.00 0.00 0.00 78 1017.3
20260509071557 59 360 4.0 9.0 0.00 0.00 0.00 81 1017.4
20260509070054 58 360 5.0 10.0 0.00 0.00 0.00 83 1017.5
20260509064550 56 339 7.0 10.0 0.00 0.00 0.00 84 1017.5
20260509063046 55 349 6.0 9.0 0.00 0.00 0.00 86 1017.3
20260509061552 53 360 6.0 9.0 0.00 0.00 0.00 87 1017.3
20260509060043 52 351 6.0 9.0 0.00 0.00 0.00 88 1017.3